Terminal Aerodrome Forecast
Issued by NWS Indianapolis, IN

Home | Current Version | Previous Version | Text Only | Print | Product List | Glossary On
Versions: 1 2 3 4 5 6 7 8 9 10 11 12 13 14 15 16 17 18 19 20 21 22 23 24 25 26
000
FTUS43 KIND 310530
TAFIND
TAF
KIND 310530Z 3106/0112 20006KT P6SM SCT100
     FM311000 21002KT 4SM BR SCT250
     FM311400 23008KT P6SM SCT040 SCT250
     FM010100 20004KT P6SM SCT250=

USA.gov is the U.S. government's official web portal to all federal, state and local government web resources and services.